EW9778 Weather Reports


Display with metric or nautical units.
time (UTC)temp
F
wind
direction
speed
MPH
gust
MPH
rain 1hr
in
rain 24hr
in
rain mn
in
humidity
%
barometer
mb
20260504210059 82 208 5.0 10.0 0.00 0.00 0.00 62 1010.5
20260504204526 80 178 0.0 7.0 0.00 0.00 0.00 62 1010.8
20260504203027 80 198 4.0 11.0 0.00 0.00 0.00 62 1011.0
20260504201517 80 229 3.0 10.0 0.00 0.00 0.00 63 1011.3
20260504200015 81 202 2.0 8.0 0.00 0.00 0.00 62 1011.5
20260504194513 81 182 4.0 9.0 0.00 0.00 0.00 60 1011.7
20260504193019 80 198 2.0 8.0 0.00 0.00 0.00 62 1011.8
20260504191506 80 193 1.0 11.0 0.00 0.00 0.00 63 1012.0
20260504190004 79 211 2.0 12.0 0.00 0.00 0.00 62 1012.4
20260504184503 80 215 3.0 11.0 0.00 0.00 0.00 62 1012.5
20260504183002 80 214 3.0 10.0 0.00 0.00 0.00 61 1012.4
20260504181535 79 248 4.0 9.0 0.00 0.00 0.00 62 1012.6
20260504180025 78 186 4.0 9.0 0.00 0.00 0.00 62 1012.9
20260504174522 78 205 4.0 11.0 0.00 0.00 0.00 63 1013.1
20260504173019 78 252 3.0 10.0 0.00 0.00 0.00 62 1013.2
20260504171515 77 191 3.0 9.0 0.00 0.00 0.00 64 1013.7
20260504081507 62 205 0.0 2.0 0.00 0.00 0.00 72 1015.1
20260504044544 65 200 1.0 3.0 0.00 0.00 0.00 66 1017.1
20260504043036 66 200 0.0 3.0 0.00 0.00 0.00 65 1017.1
20260504041533 66 200 1.0 4.0 0.00 0.00 0.00 64 1017.2
20260504040033 67 190 2.0 5.0 0.00 0.00 0.00 63 1017.1
20260504034534 67 193 2.0 6.0 0.00 0.00 0.00 63 1017.1
20260504033039 68 209 1.0 5.0 0.00 0.00 0.00 62 1017.3
20260504031530 68 211 1.0 5.0 0.00 0.00 0.00 61 1017.2
20260504030022 69 209 0.0 3.0 0.00 0.00 0.00 60 1016.9
20260504024539 69 196 2.0 6.0 0.00 0.00 0.00 59 1016.9
20260504023050 70 204 1.0 8.0 0.00 0.00 0.00 58 1016.9
20260504021553 70 196 3.0 8.0 0.00 0.00 0.00 57 1016.9
20260504020016 71 178 3.0 10.0 0.00 0.00 0.00 56 1016.7
20260504014514 71 212 3.0 10.0 0.00 0.00 0.00 54 1016.7
20260504013048 72 231 4.0 10.0 0.00 0.00 0.00 53 1016.6
20260504011543 72 181 4.0 8.0 0.00 0.00 0.00 53 1016.4
20260504010036 73 200 3.0 10.0 0.00 0.00 0.00 52 1016.4
20260504004543 74 208 2.0 8.0 0.00 0.00 0.00 50 1016.4
20260504003034 74 196 2.0 8.0 0.00 0.00 0.00 50 1016.4
20260504001534 75 204 4.0 8.0 0.00 0.00 0.00 48 1016.4
20260504000032 76 201 3.0 8.0 0.00 0.00 0.00 49 1016.5
20260503234531 77 202 1.0 9.0 0.00 0.00 0.00 46 1016.4
20260503233031 77 194 4.0 12.0 0.00 0.00 0.00 45 1016.5
20260503231528 78 195 4.0 14.0 0.00 0.00 0.00 43 1016.5
20260503230028 78 161 2.0 7.0 0.00 0.00 0.00 40 1016.5
20260503224524 78 199 3.0 8.0 0.00 0.00 0.00 41 1016.8
20260503223025 78 171 4.0 7.0 0.00 0.00 0.00 41 1016.9
20260503223023 78 169 4.0 7.0 0.00 0.00 0.00 41 1016.9
20260503221522 79 196 1.0 8.0 0.00 0.00 0.00 40 1017.3
20260503220021 79 219 1.0 7.0 0.00 0.00 0.00 39 1017.1
20260503214550 80 204 3.0 11.0 0.00 0.00 0.00 39 1017.1
20260503213052 80 246 0.0 4.0 0.00 0.00 0.00 39 1017.5
20260503211518 79 131 1.0 10.0 0.00 0.00 0.00 40 1017.8